Weather History for Cleveland Burke, OH

Change the Weather History Date:

Friday, February 15, 2013

  Actual Average Record
Temperature  
Mean Temperature 32 °F -  
Max Temperature 36 °F 37 °F 66 °F (2005)
Min Temperature 27 °F 25 °F 6 °F (2007)
Degree Days  
Heating Degree Days 34    
Moisture  
Dew Point 23 °F    
Average Humidity 74    
Maximum Humidity 88    
Minimum Humidity 61    
Precipitation  
Precipitation 0.02 in - - ()
Sea Level Pressure  
Sea Level Pressure 30.03 in    
Wind  
Wind Speed 12 mph (West)    
Max Wind Speed 17 mph    
Max Gust Speed 31 mph    
Visibility 9 miles    
Events Snow    
Averages and records for this station are not official NWS values.
T = Trace of Precipitation, MM = Missing Value Source: NWS Daily Summary

Daily Weather History Graph

Daily Weather History Graph

Search for Another Location

Airport:

Trip Planner

Search our weather history database for the weather conditions in past years. The results will help you decide how hot, cold, wet, or windy it might be!

Date:

Astronomy

Feb. 15, 2013 Rise Set
Actual Time 7:21 AM EST 6:00 PM EST
Civil Twilight 6:53 AM EST 6:29 PM EST
Nautical Twilight 6:20 AM EST 7:01 PM EST
Astronomical Twilight 5:48 AM EST 7:33 PM EST
Moon 9:52 AM EST (2/15) No Moon Set
Length of Visible Light 11h 35m
Length of Day
10h 39m
Waxing Crescent, 30% of the Moon is Illuminated
Feb 15
Waxing Crescent
Feb 17
First Quarter
Feb 25
Full
Mar 4
Last Quarter
Mar 11
New

Hourly Weather History & Observations

Time (EST) Temp. Windchill Dew Point Humidity Pressure Visibility Wind Dir Wind Speed Gust Speed Precip Events Conditions
12:53 AM 36.0 °F 26.0 °F 26.1 °F 67% 29.90 in 10.0 mi West 17.3 mph 31.1 mph N/A   Overcast
1:53 AM 34.0 °F 23.8 °F 24.1 °F 67% 29.90 in 10.0 mi WSW 16.1 mph - N/A   Clear
2:53 AM 34.0 °F 23.4 °F 24.1 °F 67% 29.92 in 10.0 mi WSW 17.3 mph - N/A   Clear
3:53 AM 33.1 °F 22.6 °F 25.0 °F 72% 29.93 in 10.0 mi WSW 16.1 mph 23.0 mph N/A   Clear
5:53 AM 30.9 °F 22.8 °F 25.0 °F 79% 29.97 in 10.0 mi WSW 9.2 mph - N/A   Scattered Clouds
6:04 AM 30.2 °F 21.9 °F 24.8 °F 80% 29.95 in 10.0 mi WSW 9.2 mph - N/A   Mostly Cloudy
6:53 AM 32.0 °F 23.0 °F 24.1 °F 73% 29.99 in 10.0 mi SW 11.5 mph - N/A   Overcast
7:44 AM 32.0 °F 23.0 °F 24.8 °F 75% 29.99 in 10.0 mi WSW 11.5 mph - N/A   Overcast
7:53 AM 32.0 °F 23.0 °F 25.0 °F 75% 30.01 in 10.0 mi WSW 11.5 mph - N/A   Overcast
8:53 AM 33.1 °F 24.4 °F 26.1 °F 75% 30.04 in 10.0 mi WSW 11.5 mph - N/A   Overcast
9:48 AM 32.0 °F 23.6 °F 26.6 °F 80% 30.03 in 6.0 mi West 10.4 mph - 0.00 in Snow Light Snow
9:53 AM 32.0 °F 23.0 °F 26.1 °F 79% 30.05 in 5.0 mi West 11.5 mph - 0.00 in Snow Light Snow
10:43 AM 30.2 °F 21.9 °F 26.6 °F 86% 30.04 in 3.0 mi WNW 9.2 mph - 0.00 in Snow Light Snow
10:51 AM 30.2 °F 22.6 °F 26.6 °F 86% 30.04 in 2.5 mi WNW 8.1 mph - 0.00 in Snow Light Snow
10:53 AM 30.0 °F 22.4 °F 27.0 °F 88% 30.06 in 3.0 mi WNW 8.1 mph - 0.00 in Snow Light Snow
11:53 AM 32.0 °F 26.4 °F 27.0 °F 82% 30.06 in 10.0 mi West 5.8 mph - 0.00 in   Overcast
12:53 PM 30.9 °F 21.7 °F 24.1 °F 76% 30.06 in 10.0 mi WNW 11.5 mph - 0.01 in   Overcast
1:38 PM 30.2 °F 22.6 °F 23.0 °F 75% 30.03 in 10.0 mi NW 8.1 mph - N/A   Overcast
1:53 PM 30.9 °F 23.5 °F 24.1 °F 76% 30.04 in 10.0 mi NW 8.1 mph - N/A   Overcast
2:53 PM 30.9 °F 21.7 °F 21.9 °F 69% 30.06 in 10.0 mi WNW 11.5 mph - 0.01 in   Overcast
3:53 PM 28.9 °F 20.4 °F 19.9 °F 69% 30.07 in 10.0 mi NW 9.2 mph - N/A   Overcast
4:53 PM 28.0 °F 20.0 °F 19.0 °F 69% 30.09 in 10.0 mi WNW 8.1 mph - N/A   Overcast
5:53 PM 28.0 °F 21.7 °F 19.9 °F 72% 30.10 in 10.0 mi WSW 5.8 mph - 0.00 in   Overcast
6:53 PM 27.0 °F 21.6 °F 19.9 °F 75% 30.10 in 10.0 mi West 4.6 mph - N/A   Overcast
7:53 PM 28.9 °F 19.8 °F 19.9 °F 69% 30.11 in 10.0 mi NNW 10.4 mph - N/A   Overcast
8:53 PM 28.0 °F 20.8 °F 19.0 °F 69% 30.11 in 10.0 mi North 6.9 mph - N/A   Overcast
9:53 PM 28.0 °F 20.0 °F 17.1 °F 63% 30.12 in 10.0 mi North 8.1 mph - N/A   Overcast
10:53 PM 28.0 °F 18.6 °F 16.0 °F 61% 30.11 in 10.0 mi NNW 10.4 mph - N/A   Overcast
11:53 PM 27.0 °F 18.0 °F 17.1 °F 66% 30.11 in 10.0 mi NNW 9.2 mph - N/A   Overcast